Location: Newark
(13.8117°N, 3.6025°W)
Time: 12:55:44
(UTC+00:00)

Explorer 11/Cluster Stage 4 - Pass Details

Date: 01 September 2019
Orbit: 467 x 1260 km, 28.8° (Epoch: 15 September)

Event Time Altitude Azimuth Distance (km) Brightness Sun altitude
Rises 04:16:49 0° 237° (WSW) 2,675 - -25.9°
Reaches altitude 10° 04:18:53 10° 234° (SW) 1,863 - -25.5°
Exits shadow 04:22:55 67° 172° (S) 699 6.2 -24.5°
Maximum altitude 04:23:09 69° 151° (SSE) 698 6.2 -24.5°
Drops below altitude 10° 04:28:30 10° 68° (ENE) 2,319 10.1 -23.2°
Sets 04:31:19 0° 66° (ENE) 3,396 11.3 -22.6°
